TimeMDT,TemperatureF,Dew PointF,Humidity,Sea Level PressureIn,VisibilityMPH,Wind Direction,Wind SpeedMPH,Gust SpeedMPH,PrecipitationIn,Events,Conditions,WindDirDegrees,DateUTC
12:53 AM,17.1,12.0,81,30.37,10.0,SW,9.2,-,N/A,,Clear,230,2013-03-20 06:53:00
1:53 AM,17.1,12.9,84,30.34,10.0,SW,9.2,-,N/A,,Clear,220,2013-03-20 07:53:00
2:53 AM,18.0,12.9,81,30.29,10.0,SSW,8.1,-,N/A,,Clear,210,2013-03-20 08:53:00
3:53 AM,19.0,14.0,81,30.24,10.0,SW,16.1,-,N/A,,Clear,220,2013-03-20 09:53:00
4:53 AM,19.0,12.9,77,30.23,10.0,SW,12.7,-,N/A,,Clear,220,2013-03-20 10:53:00
5:53 AM,18.0,12.9,81,30.21,10.0,SW,12.7,-,N/A,,Clear,220,2013-03-20 11:53:00
6:53 AM,18.0,12.9,81,30.28,10.0,SW,11.5,-,N/A,,Clear,220,2013-03-20 12:53:00
7:53 AM,21.0,15.1,78,30.26,10.0,SW,13.8,-,N/A,,Clear,220,2013-03-20 13:53:00
8:53 AM,25.0,16.0,69,30.23,10.0,South,9.2,-,N/A,,Clear,190,2013-03-20 14:53:00
9:53 AM,30.0,17.1,59,30.18,10.0,South,13.8,-,N/A,,Clear,190,2013-03-20 15:53:00
10:53 AM,34.0,15.1,46,30.12,10.0,SSW,17.3,-,N/A,,Clear,210,2013-03-20 16:53:00
11:53 AM,37.9,14.0,38,30.07,10.0,South,12.7,-,N/A,,Clear,190,2013-03-20 17:53:00
12:53 PM,41.0,12.9,32,30.03,10.0,SSW,13.8,-,N/A,,Clear,200,2013-03-20 18:53:00
1:53 PM,39.9,14.0,35,30.00,10.0,SSW,13.8,-,N/A,,Mostly Cloudy,200,2013-03-20 19:53:00
2:53 PM,43.0,12.0,28,29.94,10.0,SSW,17.3,21.9,N/A,,Mostly Cloudy,210,2013-03-20 20:53:00
3:53 PM,48.9,3.9,16,29.87,10.0,South,15.0,-,N/A,,Overcast,180,2013-03-20 21:53:00
4:53 PM,46.0,1.0,16,29.88,10.0,SSW,8.1,-,N/A,,Overcast,210,2013-03-20 22:53:00
5:53 PM,46.9,6.1,19,29.85,10.0,WSW,5.8,-,N/A,,Mostly Cloudy,240,2013-03-20 23:53:00
6:53 PM,44.1,8.1,23,29.87,10.0,SSW,17.3,-,N/A,,Overcast,210,2013-03-21 00:53:00
7:53 PM,39.9,6.1,25,29.85,10.0,South,10.4,-,N/A,,Scattered Clouds,190,2013-03-21 01:53:00
8:53 PM,44.1,17.1,34,29.80,10.0,SSE,8.1,-,N/A,,Partly Cloudy,160,2013-03-21 02:53:00
9:53 PM,43.0,18.0,37,29.77,10.0,West,11.5,19.6,N/A,,Mostly Cloudy,280,2013-03-21 03:53:00
10:53 PM,44.1,21.9,42,29.73,10.0,West,16.1,-,N/A,,Clear,270,2013-03-21 04:53:00
11:53 PM,42.8,23.0,46,29.73,10.0,West,15.0,-,N/A,,Clear,260,2013-03-21 05:53:00